Stations météo

réclame
Mon MeteoGroup
Hereford/Credenhill, Grande-Bretagne (3522): Température de l'air & dewpoint: 12.02.2019 16:00:00 - 18.02.2019 16:00:00 (GMT)Hereford/Credenhill, Grande-Bretagne (3522): Température de l'air -20cm & Température de l'air -100cm: 12.02.2019 16:00:00 - 18.02.2019 16:00:00 (GMT)Hereford/Credenhill, Grande-Bretagne (3522): Vitesse du vent: 12.02.2019 16:00:00 - 18.02.2019 16:00:00 (GMT)Hereford/Credenhill, Grande-Bretagne (3522): Direction du vent: 12.02.2019 16:00:00 - 18.02.2019 16:00:00 (GMT)Hereford/Credenhill, Grande-Bretagne (3522): reduced air pressure: 12.02.2019 16:00:00 - 18.02.2019 16:00:00 (GMT)Hereford/Credenhill, Grande-Bretagne (3522): visibility: 12.02.2019 16:00:00 - 18.02.2019 16:00:00 (GMT)Hereford/Credenhill, Grande-Bretagne (3522): Quantités de précipitations: 12.02.2019 16:00:00 - 18.02.2019 16:00:00 (GMT)
Date & Time tt [°C] td [°C] tt -20cm [°C] tt -100cm [°C] ff [km/h] ff [knt] dd ppp [hPa] vv [km] rr [mm]
18.02.2019 16:00:00 10,5 0,4 - - 16 9 WSW 1012,5 40 0,0
18.02.2019 15:00:00 10,9 1,9 - - 13 7 WSW 1012,4 40 0,0
18.02.2019 14:00:00 10,0 3,2 - - 13 7 SW 1012,8 40 0,0
18.02.2019 13:00:00 9,9 5,0 - - 8 4 SW 1013,0 28 0,0
18.02.2019 12:00:00 9,3 6,0 - - 5 3 SSW 1013,3 40 0,0
18.02.2019 11:00:00 8,6 6,3 - - 8 4 SW 1013,3 30 0,2
18.02.2019 10:00:00 8,9 5,6 - - 8 4 SSW 1012,8 40 0,0
18.02.2019 09:00:00 8,3 6,3 5,7 7,0 5 3 S 1012,7 24 0,0
18.02.2019 08:00:00 6,6 5,5 - - 4 2 SSW 1012,9 20 0,0
18.02.2019 07:00:00 6,2 5,1 - - 4 2 S 1012,5 20 0,0
18.02.2019 06:00:00 6,1 5,0 - - 4 2 S 1012,5 18 0,0
18.02.2019 05:00:00 6,9 5,8 - - 4 2 S 1012,7 17 0,0
18.02.2019 04:00:00 6,6 5,8 - - 4 2 SSE 1012,9 17 0,0
18.02.2019 03:00:00 6,9 5,6 - - 4 2 S 1013,1 17 0,0
18.02.2019 02:00:00 7,6 5,7 - - 5 3 S 1013,1 21 0,0
18.02.2019 01:00:00 7,7 5,8 - - 4 2 SSW 1013,3 19 0,0
18.02.2019 00:00:00 7,8 6,2 - - 5 3 S 1013,2 18 0,0
17.02.2019 23:00:00 8,1 6,2 - - 5 3 S 1013,2 17 0,0
17.02.2019 22:00:00 7,8 5,5 - - 8 4 S 1013,2 18 0,0
17.02.2019 21:00:00 7,0 4,5 - - 4 2 S 1013,0 25 0,0
17.02.2019 20:00:00 6,8 5,1 - - 4 2 SW 1013,1 24 0,0
17.02.2019 19:00:00 6,6 5,5 - - 4 2 SE 1012,7 22 0,0
17.02.2019 18:00:00 8,1 5,8 - - 2 1 SSW 1012,3 30 0,0
17.02.2019 17:00:00 9,9 7,2 - - 4 2 S 1011,8 21 0,2
17.02.2019 16:00:00 11,4 5,5 - - 9 5 SSW 1011,5 27 0,0
17.02.2019 15:00:00 11,7 7,8 - - 5 3 S 1011,8 23 0,0
17.02.2019 14:00:00 11,7 8,6 - - 4 2 S 1011,7 18 0,0
17.02.2019 13:00:00 11,1 8,3 - - 8 4 S 1011,8 14 0,0
17.02.2019 12:00:00 11,3 8,5 - - 5 3 S 1012,0 13 -
17.02.2019 11:00:00 9,7 7,0 - - 8 4 S 1012,0 12 -
17.02.2019 10:00:00 8,8 6,3 - - 8 4 S 1011,9 13 0,0
17.02.2019 09:00:00 7,8 4,9 5,7 7,0 8 4 SSE 1011,7 11 0,0
17.02.2019 08:00:00 6,2 4,6 - - 8 4 SE 1011,7 11 0,0
17.02.2019 07:00:00 3,4 1,9 - - 5 3 ESE 1012,2 2,8 0,0
17.02.2019 06:00:00 6,6 5,2 - - 8 4 ESE 1012,4 8 0,0
17.02.2019 05:00:00 6,7 5,4 - - 5 3 ESE 1013,3 9 0,0
17.02.2019 04:00:00 7,8 6,3 - - 5 3 ESE 1013,9 10 0,0
17.02.2019 03:00:00 9,1 7,4 - - 8 4 SE 1015,1 10 0,0
17.02.2019 02:00:00 9,8 8,0 - - 8 4 SE 1015,8 13 0,0
17.02.2019 01:00:00 9,7 7,7 - - 8 4 ESE 1016,5 20 0,0
17.02.2019 00:00:00 9,7 7,6 - - 11 6 SSE 1017,4 19 0,0
16.02.2019 23:00:00 9,7 7,8 - - 5 3 SSE 1018,4 21 0,0
16.02.2019 22:00:00 9,8 7,7 - - 4 2 ESE 1018,7 21 0,0
16.02.2019 21:00:00 10,4 8,3 - - 8 4 S 1018,9 17 0,0
16.02.2019 20:00:00 11,1 9,3 - - 5 3 S 1019,1 18 0,0
16.02.2019 19:00:00 11,4 9,5 - - 9 5 S 1019,1 22 0,0
16.02.2019 18:00:00 11,7 9,7 - - 11 6 S 1019,0 23 0,0
16.02.2019 17:00:00 11,9 9,4 - - 5 3 S 1018,9 30 0,0
16.02.2019 16:00:00 12,6 9,6 - - 5 3 S 1019,1 30 0,0
16.02.2019 15:00:00 12,9 9,6 - - 5 3 S 1019,6 29 0,0
16.02.2019 14:00:00 11,8 8,1 - - 5 3 S 1020,3 28 0,0
16.02.2019 13:00:00 12,7 6,8 - - 11 6 SSW 1020,8 30 0,0
16.02.2019 12:00:00 12,7 6,9 - - 9 5 SSW 1021,3 35 0,0
16.02.2019 11:00:00 13,0 7,1 - - 5 3 S 1021,4 35 0,0
16.02.2019 10:00:00 10,9 7,2 - - 4 2 S 1021,4 30 0,0
16.02.2019 09:00:00 8,0 7,6 5,0 7,2 4 2 SE 1021,6 28 0,0
16.02.2019 08:00:00 5,1 4,6 - - 2 1 SSW 1021,4 24 0,0
16.02.2019 07:00:00 5,5 4,2 - - 4 2 SSW 1020,7 24 0,0
16.02.2019 06:00:00 7,5 6,6 - - 4 2 SW 1020,5 8 0,0
16.02.2019 05:00:00 9,3 8,3 - - 4 2 SW 1020,3 8 0,0
16.02.2019 04:00:00 9,3 8,1 - - 5 3 S 1020,2 8 0,0
16.02.2019 03:00:00 9,4 8,3 - - 5 3 S 1020,2 9 0,0
16.02.2019 02:00:00 9,0 7,8 - - 4 2 SSW 1020,7 8 0,0
16.02.2019 01:00:00 9,0 7,4 - - 8 4 SSW 1020,7 7 0,0
16.02.2019 00:00:00 7,9 7,2 - - 5 3 SW 1020,9 8 0,0
15.02.2019 23:00:00 7,3 5,7 - - 9 5 SSE 1021,7 8 0,0
15.02.2019 22:00:00 6,0 5,2 - - 5 3 S 1022,0 6 0,0
15.02.2019 21:00:00 6,7 5,1 - - 4 2 S 1022,0 11 0,0
15.02.2019 20:00:00 7,6 6,2 - - 5 3 S 1022,4 15 0,0
15.02.2019 19:00:00 5,8 4,3 - - 5 3 WSW 1022,7 13 0,0
15.02.2019 18:00:00 6,0 3,5 - - 4 2 SSE 1022,8 12 0,0
15.02.2019 17:00:00 10,2 5,6 - - 4 2 SSW 1022,7 17 0,0
15.02.2019 16:00:00 12,5 5,6 - - 8 4 S 1022,7 20 0,0
15.02.2019 15:00:00 14,1 4,9 - - 9 5 S 1023,1 23 0,0
15.02.2019 14:00:00 13,6 6,5 - - 11 6 SSE 1023,7 18 0,0
15.02.2019 13:00:00 13,1 6,8 - - 5 3 S 1024,8 13 0,0
15.02.2019 12:00:00 11,8 6,8 - - 8 4 S 1025,4 12 0,0
15.02.2019 11:00:00 8,5 6,4 - - 9 5 ENE 1025,9 7 0,0
15.02.2019 10:00:00 5,4 4,9 - - 8 4 ENE 1026,3 4,3 0,2
15.02.2019 09:00:00 0,7 0,7 5,2 7,2 8 4 ENE 1026,9 1,1 0,0
15.02.2019 08:00:00 0,3 0,3 - - 5 3 NE 1027,0 2,1 0,0
15.02.2019 07:00:00 -0,5 -0,6 - - 5 3 NE 1027,0 0,9 0,0
15.02.2019 06:00:00 -1,4 -1,5 - - 5 3 ENE 1027,0 1,1 0,0
15.02.2019 05:00:00 -0,9 -0,9 - - 5 3 NE 1027,3 1,3 0,0
15.02.2019 04:00:00 -1,7 -1,8 - - 8 4 E 1027,6 1,6 0,0
15.02.2019 03:00:00 -2,3 -2,4 - - 2 1 E 1028,0 0,1 0,0
15.02.2019 02:00:00 -1,7 -1,8 - - 4 2 ENE 1028,4 0,5 0,0
15.02.2019 01:00:00 -1,6 -1,8 - - 4 2 ENE 1028,7 1,8 0,0
15.02.2019 00:00:00 -0,9 -1,0 - - 2 1 NE 1029,0 0,2 0,0
14.02.2019 23:00:00 -0,4 -0,6 - - 4 2 ENE 1029,2 0,5 0,0
14.02.2019 22:00:00 0,4 0,2 - - 2 1 E 1029,4 3,1 0,0
14.02.2019 21:00:00 0,5 0,1 - - 4 2 ENE 1029,3 0,7 0,0
14.02.2019 20:00:00 1,6 0,9 - - 0 0 N 1029,5 2,8 0,0
14.02.2019 19:00:00 3,2 2,3 - - 0 0 N 1029,6 4,2 0,0
14.02.2019 18:00:00 4,9 2,5 - - 2 1 SE 1029,6 8 0,0
14.02.2019 17:00:00 8,3 4,4 - - 4 2 SE 1029,7 14 0,0
14.02.2019 16:00:00 10,2 5,0 - - 8 4 SE 1029,7 16 0,0
14.02.2019 15:00:00 10,5 4,7 - - 8 4 SE 1029,9 15 0,0
14.02.2019 14:00:00 10,8 5,7 - - 9 5 SE 1030,3 14 0,0
14.02.2019 13:00:00 9,5 6,2 - - 9 5 ESE 1031,1 8 0,0
14.02.2019 12:00:00 9,0 6,1 - - 8 4 E 1031,9 6 0,0
14.02.2019 11:00:00 8,2 7,6 - - 4 2 S 1032,1 6 0,0
14.02.2019 10:00:00 5,9 5,9 - - 4 2 SSW 1032,1 4,1 0,0
14.02.2019 09:00:00 5,0 5,0 5,5 7,0 4 2 S 1032,0 2,8 0,0
14.02.2019 08:00:00 3,5 3,5 - - 5 3 E 1032,0 0,4 0,0
14.02.2019 07:00:00 2,7 2,7 - - 4 2 E 1031,5 1,0 0,0
14.02.2019 06:00:00 1,6 1,6 - - 2 1 WSW 1031,4 0,8 0,0
14.02.2019 05:00:00 0,6 0,3 - - 0 0 N 1031,5 - 0,0
14.02.2019 04:00:00 1,8 1,4 - - 5 3 E 1031,6 0,7 0,0
14.02.2019 03:00:00 3,3 3,0 - - 8 4 S 1031,7 3,3 0,0
14.02.2019 02:00:00 4,0 3,5 - - 5 3 SSE 1031,7 3,9 0,0
14.02.2019 01:00:00 4,4 3,8 - - 5 3 S 1031,9 5 0,0
14.02.2019 00:00:00 4,9 4,5 - - 5 3 S 1031,6 5 0,0
13.02.2019 23:00:00 4,7 3,9 - - 4 2 ENE 1031,3 5 0,0
13.02.2019 22:00:00 5,4 4,2 - - 8 4 NE 1031,1 6 0,0
13.02.2019 21:00:00 6,2 4,9 - - 5 3 SSE 1030,7 9 0,0
13.02.2019 20:00:00 6,8 5,3 - - 5 3 S 1030,6 14 0,0
13.02.2019 19:00:00 7,3 4,9 - - 5 3 SSE 1030,5 20 0,0
13.02.2019 18:00:00 7,6 4,8 - - 4 2 S 1030,2 27 0,0
13.02.2019 17:00:00 9,0 5,1 - - 8 4 SSE 1029,9 28 0,0
13.02.2019 16:00:00 9,9 5,4 - - 5 3 S 1030,3 30 0,0
13.02.2019 15:00:00 10,5 5,8 - - 5 3 SSE 1030,6 35 0,0
13.02.2019 14:00:00 10,8 6,5 - - 5 3 S 1030,9 30 0,0
13.02.2019 13:00:00 10,1 6,2 - - 5 3 S 1031,3 22 0,0
13.02.2019 12:00:00 10,2 6,4 - - 5 3 S 1031,5 19 0,0
13.02.2019 11:00:00 9,1 6,7 - - 8 4 S 1031,3 20 0,0
13.02.2019 10:00:00 8,5 6,2 - - 4 2 SW 1031,2 30 0,0
13.02.2019 09:00:00 7,6 5,5 5,2 7,2 5 3 SSE 1031,4 50 0,0
13.02.2019 08:00:00 6,6 4,5 - - 4 2 S 1031,6 30 0,0
13.02.2019 07:00:00 6,8 4,8 - - 4 2 N 1031,5 30 0,0
13.02.2019 06:00:00 8,0 5,6 - - 4 2 SE 1031,3 27 0,0
13.02.2019 05:00:00 8,2 6,4 - - 4 2 SE 1031,5 21 0,0
13.02.2019 04:00:00 8,1 6,5 - - 4 2 SSE 1031,5 18 0,0
13.02.2019 03:00:00 8,1 6,7 - - 2 1 SSW 1031,9 16 0,0
13.02.2019 02:00:00 8,6 6,8 - - 4 2 SE 1032,5 21 0,0
13.02.2019 01:00:00 7,7 6,8 - - 2 1 S 1032,5 13 0,0
13.02.2019 00:00:00 7,9 6,8 - - 2 1 S 1032,5 12 0,0
12.02.2019 23:00:00 8,1 7,2 - - 2 1 SW 1032,6 18 0,0
12.02.2019 22:00:00 8,6 7,0 - - 4 2 SSW 1032,6 18 0,0
12.02.2019 21:00:00 8,5 6,9 - - 5 3 SW 1032,4 24 0,0
12.02.2019 20:00:00 8,7 7,1 - - 4 2 SW 1032,4 26 0,0
12.02.2019 19:00:00 7,9 6,8 - - 4 2 SW 1032,5 35 0,0
12.02.2019 18:00:00 7,9 5,4 - - 4 2 S 1031,9 50 0,0
12.02.2019 17:00:00 9,9 6,9 - - 5 3 SSW 1031,6 65 0,0
12.02.2019 16:00:00 10,2 6,9 - - 4 2 SSW 1031,6 50 0,0

tt = Température de l'air
td = dewpoint
tt -20cm = Température de l'air -20cm
tt -100cm = Température de l'air -100cm
ff = Vitesse du vent
dd = Direction du vent
ppp = reduced air pressure
vv = visibility
rr = Quantités de précipitations

stations d'obs. à proximité